Regional Weather Roundup
Issued by NWS New Orleans/Baton Rouge, LA

Home | Current Version | Previous Version | Graphics & Text | Print | Product List | Glossary On
Versions: 1 2 3 4 5 6 7 8 9 10 11 12 13 14 15 16 17 18 19 20 21 22 23 24 25 26 27 28 29 30 31 32 33 34 35 36 37 38 39 40 41 42 43 44 45 46 47 48 49 50
477
ASUS44 KLIX 270705
RWRLIX
NEW ORLEANS REGIONAL WEATHER ROUNDUP
NATIONAL WEATHER SERVICE NEW ORLEANS LA
200 AM CDT WED AUG 27 2014

NOTE: "FAIR" INDICATES FEW OR NO CLOUDS BELOW 12,000 FEET WITH NO
      SIGNIFICANT WEATHER AND/OR OBSTRUCTIONS TO VISIBILITY.
      SKY/WX - SKY CONDITION AND SIGNIFICANT WEATHER.
      TMP - AIR TEMPERATURE.     DP    - DEWPOINT TEMPERATURE.
      RH  - RELATIVE HUMIDITY.   PRES  - PRESSURE.
      HI  - HEAT INDEX.          WCI   - WIND CHILL INDEX.

*  THESE STATIONS ARE NOT NWS OR FAA STATIONS AND ARE NOT UNDER
   NWS QUALITY CONTROL.

LAZ038-040-048-061>063-065>067-069-270800-
SOUTHEAST LOUISIANA

CITY           SKY/WX    TMP DP  RH WIND       PRES   REMARKS
N.O. AUDUBON     N/A     81  75  82 MISG        N/A
N.O. INTL ARPT CLEAR     81  74  79 E3        29.97F
N.O. LAKEFRONT CLEAR     83  75  77 E8        29.97F
N.O. DOWNTOWN*   N/A     82  72  69 NE3       29.97F
SLIDELL        CLEAR     74  72  93 N3        29.98S
BATON ROUGE    CLEAR     75  72  90 NE3       29.98F
BOOTHVILLE     CLEAR     82  74  76 E6        29.96S
BELLE CHASSE   CLEAR     76  72  87 CALM      29.96F
BOGALUSA*        N/A     72  68  86 CALM      30.00F
GALLIANO*      NOT AVBL
NEW ROADS*       N/A     73  72  98 CALM      29.99S
GONZALES*        N/A     74  74 100 CALM      29.97F
HAMMOND*       CLEAR     73  70  88 CALM      30.00S
HOUMA*         PTCLDY    76  73  87 NE3       29.96F
PORT FOURCHON* MOSUNNY   82  75  78 E9        29.96S

$$

MSZ070-080>082-270800-
SOUTHERN MISSISSIPPI

CITY           SKY/WX    TMP DP  RH WIND       PRES   REMARKS
MCCOMB         CLEAR     72  66  81 CALM      30.01S
GULFPORT       CLEAR     77  73  87 NE3       29.97F
BILOXI         PTCLDY    77  73  88 NE8       29.98S
PASCAGOULA     PTCLDY    73  71  93 CALM      29.98S

$$

COASTAL OBSERVATIONS
LAKE AND NEARSHORE STATIONS

STATION/POSITION TIME  TEMP    WIND        PRES    WAVE
                       AIR SEA DIR/SP/G            HT/PER
                 (UTC) (F)     (DEG/KT/KT) (MB)    (FT/S)
PASCAGOULA       0700   79     310/  1/  2 1014.7
WAVELAND YACHT   0700   80      30/  4/  5 1014.5
GRAND ISLE       0700   83 85   90/  9/ 12 1014.8
SOUTHWEST PASS   0700   84 87  100/ 16/ 18 1014.3
NEW CANAL        0700   81 84   80/  2/  4 1015.2
SHELL BEACH      0700   83 81   90/  6/  7 1014.6

OFFSHORE STATIONS

STATION/POSITION TIME  TEMP    WIND        PRES    WAVE
                       AIR SEA DIR/SP/G            HT/PER
                 (UTC) (F)     (DEG/KT/KT) (MB)    (FT/S)
64 S DAUPHIN ISL 0648   85 86   90/ 16/ 19 1014.4

$$




USA.gov is the U.S. government's official web portal to all federal, state and local government web resources and services.